Back to catalog

ARIANE 1 DEB

AliveHEO
NORAD 40778·DEBRIS·🇫🇷 France

Launched Dec 24, 1979 from Guiana Space Centre

Loading…

Next Passes (next 24 hours)

TLE

AgingSource: Space-Track

Epoch: Aug 28, 2026, 13:11 UTC

1 40778U 79104AF  26240.54951310  .00000150  00000-0  30614-3 0  9992
2 40778  18.0202  13.4139 4828834 265.2671  66.1646  5.58150400258549

Track ARIANE 1 DEB in real time with AllMySat

Download on the App Store